This is the latest recevied weather packets stored in our database for station/object OE2IJL. If no packets are shown the sender has not sent any weather packets the latest 10 day(s).
| Time | Temp. | Humidity | Pressure | Rain* | Wind** | Luminosity | Snow |
|---|---|---|---|---|---|---|---|
| 1777830097 | 23.33° C | 32% | 995 hPa | 0 mm | - | - | - |
| 1777830056 | 23.33° C | 32% | 995 hPa | 0 mm | - | - | - |
| 1777829509 | 25° C | 28% | 994.9 hPa | 0 mm | - | - | - |
| 1777829455 | 25° C | 28% | 994.9 hPa | 0 mm | - | - | - |
| 1777828853 | 26.11° C | 27% | 994.9 hPa | 0 mm | - | - | - |
| 1777828307 | 27.22° C | 23% | 994.8 hPa | 0 mm | - | - | - |
| 1777828252 | 27.22° C | 23% | 994.8 hPa | 0 mm | - | - | - |
| 1777827651 | 27.22° C | 22% | 994.8 hPa | 0 mm | - | - | - |
| 1777827050 | 27.78° C | 20% | 994.7 hPa | 0 mm | - | - | - |
| 1777826511 | 27.78° C | 21% | 994.6 hPa | 0 mm | - | - | - |
| 1777826448 | 27.78° C | 21% | 994.6 hPa | 0 mm | - | - | - |
| 1777825847 | 27.22° C | 19% | 994.5 hPa | 0 mm | - | - | - |
| 1777825245 | 27.78° C | 21% | 994.6 hPa | 0 mm | - | - | - |
| 1777824644 | 27.22° C | 19% | 994.5 hPa | 0 mm | - | - | - |
| 1777824043 | 27.22° C | 20% | 994.5 hPa | 0 mm | - | - | - |
| 1777823443 | 27.78° C | 20% | 994.5 hPa | 0 mm | - | - | - |
| 1777822840 | 27.78° C | 19% | 994.5 hPa | 0 mm | - | - | - |
| 1777822239 | 27.22° C | 20% | 994.5 hPa | 0 mm | - | - | - |
| 1777821638 | 27.22° C | 20% | 994.6 hPa | 0 mm | - | - | - |
| 1777821036 | 27.78° C | 20% | 994.5 hPa | 0 mm | - | - | - |
| 1777820435 | 27.78° C | 19% | 994.6 hPa | 0 mm | - | - | - |
| 1777819232 | 28.33° C | 19% | 994.8 hPa | 0 mm | - | - | - |
| 1777818631 | 28.89° C | 18% | 994.9 hPa | 0 mm | - | - | - |
| 1777818030 | 28.89° C | 19% | 995 hPa | 0 mm | - | - | - |
| 1777816827 | 29.44° C | 18% | 995.2 hPa | 0 mm | - | - | - |
* Rain since midnight (hover to see other rain measurements)
** Current wind speed in m/s (hover to see current wind gust speed)